TimeCST,TemperatureF,Dew PointF,Humidity,Sea Level PressureIn,VisibilityMPH,Wind Direction,Wind SpeedMPH,Gust SpeedMPH,PrecipitationIn,Events,Conditions,WindDirDegrees,DateUTC
12:15 AM,51.8,37.4,58,30.22,10.0,NE,6.9,-,N/A,,Overcast,50,2013-01-06 06:15:00
12:35 AM,51.8,37.4,58,30.22,10.0,ENE,5.8,-,N/A,,Overcast,60,2013-01-06 06:35:00
12:55 AM,51.8,37.4,58,30.21,10.0,East,6.9,-,N/A,,Overcast,90,2013-01-06 06:55:00
1:15 AM,51.8,39.2,62,30.21,10.0,ENE,4.6,-,N/A,,Overcast,70,2013-01-06 07:15:00
1:35 AM,51.8,39.2,62,30.21,10.0,Calm,Calm,-,N/A,,Overcast,0,2013-01-06 07:35:00
1:55 AM,51.8,39.2,62,30.20,10.0,East,5.8,-,N/A,,Overcast,80,2013-01-06 07:55:00
2:15 AM,51.8,39.2,62,30.19,10.0,Calm,Calm,-,N/A,,Overcast,0,2013-01-06 08:15:00
2:35 AM,51.8,39.2,62,30.19,10.0,NE,4.6,-,N/A,,Overcast,40,2013-01-06 08:35:00
2:55 AM,51.8,39.2,62,30.18,10.0,ENE,5.8,-,N/A,,Overcast,60,2013-01-06 08:55:00
3:15 AM,51.8,39.2,62,30.18,10.0,NE,3.5,-,N/A,,Overcast,50,2013-01-06 09:15:00
3:35 AM,51.8,39.2,62,30.17,10.0,NE,4.6,-,N/A,,Overcast,50,2013-01-06 09:35:00
3:55 AM,51.8,39.2,62,30.17,10.0,NE,4.6,-,N/A,,Overcast,40,2013-01-06 09:55:00
4:15 AM,51.8,39.2,62,30.17,10.0,ENE,9.2,-,N/A,,Overcast,60,2013-01-06 10:15:00
4:35 AM,51.8,41.0,67,30.17,10.0,NNE,4.6,-,N/A,,Overcast,20,2013-01-06 10:35:00
4:55 AM,51.8,41.0,67,30.17,10.0,NNE,4.6,-,N/A,,Overcast,30,2013-01-06 10:55:00
5:15 AM,51.8,39.2,62,30.17,10.0,NNE,6.9,-,N/A,,Overcast,30,2013-01-06 11:15:00
5:35 AM,51.8,39.2,62,30.18,10.0,NNE,6.9,-,N/A,,Overcast,20,2013-01-06 11:35:00
6:15 AM,51.8,41.0,67,30.20,10.0,NNE,5.8,-,N/A,,Overcast,20,2013-01-06 12:15:00
6:35 AM,48.2,42.8,82,30.21,9.0,NNE,9.2,-,N/A,,Overcast,20,2013-01-06 12:35:00
6:55 AM,48.2,44.6,87,30.23,8.0,NNE,8.1,-,N/A,,Overcast,20,2013-01-06 12:55:00
7:15 AM,48.2,44.6,87,30.24,4.0,North,8.1,-,N/A,,Overcast,10,2013-01-06 13:15:00
7:35 AM,48.2,44.6,87,30.25,3.0,NNE,6.9,-,N/A,,Overcast,20,2013-01-06 13:35:00
7:55 AM,46.4,44.6,93,30.25,8.0,NNE,12.7,-,N/A,,Overcast,20,2013-01-06 13:55:00
8:15 AM,46.4,44.6,93,30.25,5.0,NNE,9.2,17.3,N/A,,Overcast,20,2013-01-06 14:15:00
8:35 AM,46.4,44.6,93,30.25,5.0,NNE,11.5,17.3,N/A,,Overcast,30,2013-01-06 14:35:00
8:55 AM,46.4,44.6,93,30.25,3.0,NNE,13.8,19.6,N/A,,Overcast,20,2013-01-06 14:55:00
9:15 AM,46.4,44.6,93,30.25,4.0,NNE,8.1,17.3,N/A,,Overcast,20,2013-01-06 15:15:00
9:35 AM,46.4,44.6,93,30.25,3.0,NNE,11.5,17.3,N/A,,Overcast,20,2013-01-06 15:35:00
9:55 AM,46.4,44.6,93,30.26,3.0,NNE,11.5,-,N/A,,Overcast,20,2013-01-06 15:55:00
10:15 AM,46.4,44.6,93,30.27,4.0,North,9.2,18.4,N/A,,Overcast,10,2013-01-06 16:15:00
10:35 AM,46.4,44.6,93,30.27,5.0,NNE,11.5,-,N/A,,Overcast,30,2013-01-06 16:35:00
10:55 AM,46.4,44.6,93,30.25,10.0,NNE,12.7,19.6,N/A,,Overcast,20,2013-01-06 16:55:00
11:15 AM,48.2,44.6,87,30.25,10.0,North,9.2,-,N/A,,Overcast,10,2013-01-06 17:15:00
11:35 AM,48.2,46.4,93,30.24,10.0,NNE,12.7,18.4,N/A,,Overcast,20,2013-01-06 17:35:00
11:55 AM,48.2,44.6,87,30.24,10.0,North,10.4,18.4,N/A,,Overcast,10,2013-01-06 17:55:00
12:15 PM,48.2,44.6,87,30.22,10.0,North,8.1,17.3,N/A,,Overcast,10,2013-01-06 18:15:00
12:35 PM,48.2,46.4,93,30.22,9.0,NNE,8.1,-,N/A,,Overcast,20,2013-01-06 18:35:00
12:55 PM,48.2,46.4,93,30.22,3.0,NNE,8.1,-,N/A,,Overcast,20,2013-01-06 18:55:00
1:15 PM,48.2,46.4,93,30.22,5.0,North,6.9,17.3,N/A,,Overcast,10,2013-01-06 19:15:00
1:35 PM,48.2,46.4,93,30.21,10.0,NNE,10.4,-,N/A,,Overcast,20,2013-01-06 19:35:00
1:55 PM,48.2,46.4,93,30.21,10.0,North,9.2,-,N/A,,Overcast,10,2013-01-06 19:55:00
2:15 PM,48.2,46.4,93,30.22,10.0,North,9.2,-,N/A,,Overcast,10,2013-01-06 20:15:00
2:35 PM,50.0,46.4,87,30.21,10.0,North,5.8,-,N/A,,Overcast,10,2013-01-06 20:35:00
2:55 PM,50.0,46.4,87,30.22,10.0,NNE,9.2,16.1,N/A,,Overcast,20,2013-01-06 20:55:00
3:15 PM,50.0,46.4,87,30.22,10.0,NNE,8.1,-,N/A,,Overcast,20,2013-01-06 21:15:00
3:35 PM,50.0,46.4,87,30.22,10.0,North,6.9,-,N/A,,Overcast,10,2013-01-06 21:35:00
3:55 PM,50.0,46.4,87,30.23,10.0,NNE,10.4,-,N/A,,Overcast,20,2013-01-06 21:55:00
4:15 PM,48.2,46.4,93,30.22,10.0,North,5.8,-,N/A,,Overcast,10,2013-01-06 22:15:00
4:35 PM,50.0,46.4,87,30.23,10.0,North,5.8,-,N/A,,Overcast,360,2013-01-06 22:35:00
4:55 PM,50.0,46.4,87,30.23,10.0,NNE,5.8,-,N/A,,Overcast,20,2013-01-06 22:55:00
5:15 PM,50.0,46.4,87,30.24,10.0,North,6.9,-,N/A,,Overcast,360,2013-01-06 23:15:00
5:35 PM,50.0,44.6,82,30.24,10.0,NNE,6.9,-,N/A,,Overcast,20,2013-01-06 23:35:00
5:55 PM,50.0,44.6,82,30.25,10.0,North,8.1,-,N/A,,Overcast,360,2013-01-06 23:55:00
6:15 PM,50.0,46.4,87,30.25,10.0,North,5.8,-,N/A,,Overcast,10,2013-01-07 00:15:00
6:35 PM,50.0,44.6,82,30.26,10.0,NNE,8.1,-,N/A,,Overcast,20,2013-01-07 00:35:00
6:55 PM,50.0,44.6,82,30.27,10.0,North,6.9,-,N/A,,Overcast,10,2013-01-07 00:55:00
7:15 PM,50.0,44.6,82,30.27,10.0,NNE,9.2,-,N/A,,Overcast,20,2013-01-07 01:15:00
7:35 PM,50.0,44.6,82,30.27,10.0,North,8.1,-,N/A,,Overcast,10,2013-01-07 01:35:00
7:55 PM,50.0,44.6,82,30.27,10.0,North,6.9,-,N/A,,Overcast,10,2013-01-07 01:55:00
8:15 PM,50.0,44.6,82,30.27,10.0,North,6.9,-,N/A,,Mostly Cloudy,360,2013-01-07 02:15:00
8:35 PM,50.0,44.6,82,30.28,10.0,North,6.9,-,N/A,,Clear,360,2013-01-07 02:35:00
9:15 PM,50.0,44.6,82,30.29,10.0,North,4.6,-,N/A,,Clear,10,2013-01-07 03:15:00
9:55 PM,48.2,44.6,87,30.30,10.0,NNE,5.8,-,N/A,,Clear,20,2013-01-07 03:55:00
10:15 PM,48.2,44.6,87,30.30,10.0,North,4.6,-,N/A,,Clear,10,2013-01-07 04:15:00
10:35 PM,48.2,42.8,82,30.30,10.0,NNE,4.6,-,N/A,,Clear,30,2013-01-07 04:35:00
10:55 PM,48.2,42.8,82,30.30,10.0,NNE,4.6,-,N/A,,Clear,20,2013-01-07 04:55:00
11:35 PM,48.2,42.8,82,30.30,10.0,North,3.5,-,N/A,,Clear,10,2013-01-07 05:35:00
11:55 PM,48.2,42.8,82,30.29,10.0,North,5.8,-,N/A,,Clear,360,2013-01-07 05:55:00